Flight Information

DEPARTURE
RENO, NV
Elevation:
4414
Runways:
16L/34R - 9000x150 - CONC-G
16R/34L - 11001x150 - CONC-G
7/25 - 6102x150 - CONC-G
Active PE Departure:
34R
Current PE ATIS:
N
Altimeter:
29.97
Remarks:
V F R DEPARTURES CONTACT CLEARANCE DELIVERY, ADVISE ON COURSE HEADING, ALTITUDE, AND IF FLIGHT FOLLOWING IS REQUESTED. NOTICE TO AIRMEN RUNWAY 1 6 RIGHT 3 4 LEFT CLOSED.
ATIS:
135.8 775-348-1550
Clearance Delivery:
124.9
Ground:
121.9
Tower:
RENO TOWER 118.7
DESTINATION
,
Elevation:
TPA:
1000 (est.)


6751.3 NM70° True-16° Var53° HDG

Flight Plan:
(click to file on line)

1. Type
2. Aircraft Identification
3. Aircraft Type / Special Equipment
4. True Airspeed
kts
5. Departure Airport
(ICAO code)
6. Arriving Airport
(ICAO code)
7. Cruising Altitude
ft
8. Alternate Airport
(ICAO code)
9. Route of Flight
10. Remarks


00:00:00 Departure ATIS: Destination ATIS:

Clearance Limit:
Route:
Altitude: Expect in minutes
Frequency:
Transponder: (7500 Hijack / 7600 Lost Comms / 7700 Emergency)


KRNO 110355Z 29011KT 10SM CLR 17/M02 A2997 RMK AO2 SLP117 T01671022 $
Time: 2021-04-11T03:55:00Z
1618114649
Winds: 290 @ 11 kts
Visibility: 10.0 sm
Clouds (AGL): CLR
Temperature: 16.7 C
Dew Point: -2.2 C
Pressure: 29.970472 in Hgbr


Notes:

Data extracted from FAA Digital Chart Supplement. Effective: 0901Z Thursday, Feb 25, 2021 to 0901Z Thursday, APR 22, 2021
Current ATIS data is provided courtisy of PilotEdge.